Location: Caltech
(34.1382°N, 118.1253°W)
Time: 02:36:49
(UTC-07:00)

A-11 Canister half - All Passes

Search period start: 22 October 2014 00:00
Search period end: 01 November 2014 00:00
Orbit: 1518 x 1682 km, 47.2° (Epoch: 20 October)

Date Brightness Start Highest point End Pass type
(mag) Time Alt. Az. Time Alt. Az. Time Alt. Az.
22 Oct - 01:28:07 10° NW 01:37:26 79° SW 01:46:40 10° SE night (unlit)
22 Oct - 03:35:01 10° W 03:41:14 20° SW 03:47:29 10° SSW night (unlit)
22 Oct - 16:41:53 10° SSW 16:50:58 42° SE 16:59:47 10° ENE daylight
22 Oct - 18:45:48 10° WSW 18:55:38 70° NNW 19:05:09 10° NE visible
22 Oct - 20:53:09 10° WNW 21:01:59 38° N 21:10:34 10° ENE visible
22 Oct - 23:00:01 10° NW 23:08:58 44° NNE 23:17:42 10° E visible
23 Oct - 01:05:13 10° NW 01:14:35 83° SW 01:23:50 10° SE night (unlit)
23 Oct - 03:11:51 10° W 03:18:27 22° SW 03:25:05 10° S night (unlit)
23 Oct - 16:19:11 10° SSW 16:28:08 39° SE 16:36:49 10° ENE daylight
23 Oct - 18:22:49 10° WSW 18:32:43 73° NNW 18:42:17 10° NE visible
23 Oct - 20:30:06 10° WNW 20:38:59 39° N 20:47:38 10° ENE visible
23 Oct - 22:37:04 10° NW 22:46:00 43° NNE 22:54:42 10° E visible
24 Oct - 00:42:20 10° NW 00:51:44 88° SW 01:00:59 10° SE night (unlit)
24 Oct - 02:48:44 10° WNW 02:55:40 24° SW 03:02:38 10° S night (unlit)
24 Oct - 15:56:31 10° SSW 16:05:18 36° SE 16:13:50 10° ENE daylight
24 Oct - 17:59:51 10° WSW 18:09:48 76° NNW 18:19:25 10° NE daylight
24 Oct - 20:07:02 10° WNW 20:16:00 40° N 20:24:43 10° ENE visible
24 Oct - 22:14:07 10° NW 22:23:02 42° NNE 22:31:42 10° E visible
25 Oct - 00:19:26 10° NW 00:28:52 88° NE 00:38:08 10° SE visible
25 Oct - 02:25:38 10° WNW 02:32:53 27° SW 02:40:09 10° S night (unlit)
25 Oct - 15:33:53 10° S 15:42:28 34° SE 15:50:50 10° ENE daylight
25 Oct - 17:36:54 10° WSW 17:46:53 80° NW 17:56:33 10° NE daylight
25 Oct - 19:43:58 10° W 19:53:00 41° NNW 20:01:47 10° NE visible
25 Oct - 21:51:10 10° NW 22:00:03 41° NNE 22:08:43 10° E visible
25 Oct - 23:56:32 10° NW 00:06:00 84° NE 00:15:16 10° SE visible
26 Oct - 02:02:34 10° WNW 02:10:06 29° SW 02:17:38 10° S night (unlit)
26 Oct - 15:11:16 10° S 15:19:38 31° SE 15:27:48 10° ENE daylight
26 Oct - 17:13:58 10° SW 17:23:59 84° NW 17:33:41 10° NE daylight
26 Oct - 19:20:54 10° W 19:30:01 42° NNW 19:38:52 10° NE visible
26 Oct - 21:28:12 10° NW 21:37:05 40° NNE 21:45:43 10° E visible
26 Oct - 23:33:39 10° NW 23:43:07 80° NE 23:52:23 10° ESE visible
27 Oct - 01:39:31 10° WNW 01:47:19 31° SW 01:55:04 10° S night (unlit)
27 Oct - 14:48:40 10° S 14:56:48 29° SE 15:04:45 10° ENE daylight
27 Oct - 16:51:02 10° SW 17:01:04 88° NW 17:10:48 10° NE daylight
27 Oct - 18:57:50 10° W 19:07:02 43° NNW 19:15:57 10° NE visible
27 Oct - 21:05:13 10° WNW 21:14:06 40° N 21:22:43 10° ENE visible
27 Oct - 23:10:45 10° NW 23:20:14 77° NNE 23:29:30 10° ESE visible
28 Oct - 01:16:30 10° WNW 01:24:31 34° SW 01:32:30 10° S night (unlit)
28 Oct - 14:26:07 10° S 14:33:59 27° SE 14:41:41 10° ENE daylight
28 Oct - 16:28:07 10° SW 16:38:10 88° SE 16:47:56 10° NE daylight
28 Oct - 18:34:46 10° W 18:44:03 44° NNW 18:53:03 10° NE visible
28 Oct - 20:42:14 10° WNW 20:51:06 39° N 20:59:43 10° ENE visible
28 Oct - 22:47:51 10° NW 22:57:21 73° NNE 23:06:36 10° ESE visible
29 Oct - 00:53:29 10° WNW 01:01:44 37° SW 01:09:53 10° SSE night (unlit)
29 Oct - 14:03:36 10° S 14:11:10 25° SE 14:18:35 10° ENE daylight
29 Oct - 16:05:13 10° SW 16:15:17 84° SE 16:25:03 10° NE daylight
29 Oct - 18:11:42 10° W 18:21:04 45° NNW 18:30:09 10° NE visible
29 Oct - 20:19:14 10° WNW 20:28:07 38° N 20:36:43 10° ENE visible
29 Oct - 22:24:57 10° NW 22:34:27 70° NNE 22:43:41 10° ESE visible
30 Oct - 00:30:29 10° WNW 00:38:56 39° SW 00:47:16 10° SSE night (unlit)
30 Oct - 13:41:08 10° S 13:48:20 23° SE 13:55:26 10° E daylight
30 Oct - 15:42:19 10° SW 15:52:23 80° SE 16:02:10 10° NE daylight
30 Oct - 17:48:38 10° W 17:58:05 46° NNW 18:07:15 10° NE daylight
30 Oct - 19:56:14 10° WNW 20:05:07 38° N 20:13:43 10° ENE visible
30 Oct - 22:02:02 10° NW 22:11:33 66° NNE 22:20:46 10° ESE visible
31 Oct - 00:07:31 10° WNW 00:16:08 42° SW 00:24:37 10° SSE visible
31 Oct - 13:18:42 10° SSE 13:25:31 21° SE 13:32:15 10° E daylight
31 Oct - 15:19:27 10° SW 15:29:30 76° SE 15:39:17 10° NE daylight
31 Oct - 17:25:34 10° W 17:35:06 48° NNW 17:44:21 10° NE daylight
31 Oct - 19:33:13 10° WNW 19:42:07 38° N 19:50:44 10° ENE visible
31 Oct - 21:39:08 10° NW 21:48:38 64° NNE 21:57:50 10° ESE visible
31 Oct - 23:44:32 10° WNW 23:53:19 46° SW 00:00:00 18° SSE visible
